Wind_Speed
26 21 19 19 18 18 19 19 17 17 18 18 19 20 19 17 16 16 16 16 16 17 18 18 17 17 16 15 15 15 15 15 15 15 15 16 18 18 18 19 19 18 18 19 19 21 22 20 16 14 12 11 12 10 6 8 6 2 4 7 6 4 5 4 9 14 12 12 11 8 7 8 8 5 3 2 2 3 3 3 3 3 2 2 1 2 2 4
26 21 19 19 18 19 20 19 17 17 18 18 19 20 19 18 17 17 17 17 18 18 18 17 17 16 15 15 15 15 16 15 15 16 18 21 21 20 19 19 18 17 16 17 20 21 21 20 16 12 12 13 13 10 7 7 8 9 7 5 8 11 13 15 17 16 15 14 11 8 6 7 8 5 5 4 3 3 2 2 1 1 3 3 2 2 3 4
26 21 19 18 18 19 20 19 18 18 19 19 20 21 20 19 18 18 18 18 18 18 17 16 16 16 16 15 16 16 16 16 18 20 23 24 23 23 23 22 21 20 20 22 25 24 21 17 13 12 14 15 13 12 12 13 13 9 4 9 13 13 14 14 13 13 14 14 11 9 7 7 7 6 6 6 4 4 3 3 2 3 4 2 1 3 4 5
26 22 19 18 17 19 20 19 18 20 20 20 21 22 21 20 19 19 18 18 17 17 16 16 16 16 16 16 16 17 17 19 21 24 26 26 27 27 26 26 27 27 26 26 26 22 18 15 14 16 15 15 16 16 13 11 10 7 8 11 11 11 12 11 10 11 14 15 11 10 8 7 7 6 7 7 7 5 5 4 4 4 4 3 1 1 3 4
26 22 19 18 18 19 21 20 19 20 21 21 22 23 22 21 20 19 18 18 17 17 16 16 15 15 16 16 17 18 19 21 23 25 27 27 27 26 26 29 31 30 29 27 24 19 16 14 14 17 15 15 17 15 11 9 8 7 9 11 10 10 10 9 9 10 13 13 11 11 9 7 7 7 8 8 8 7 6 6 4 4 4 3 2 1 1 2
27 23 20 18 18 19 21 20 20 20 21 22 22 23 23 21 20 19 18 17 16 16 15 14 14 16 16 17 18 18 19 22 23 24 24 24 24 25 27 30 31 30 28 26 23 19 18 15 13 14 14 15 14 10 8 9 9 7 7 10 11 10 10 9 9 10 11 12 12 12 10 10 11 10 9 9 9 8 7 7 6 5 5 4 3 2 0 1
27 24 21 19 18 19 21 21 20 20 21 21 22 23 22 21 20 19 18 17 16 15 15 15 15 16 17 16 18 20 21 23 23 22 22 22 23 25 29 31 31 28 26 23 19 17 18 16 15 14 11 9 8 5 6 8 10 8 6 7 8 8 8 8 9 10 11 12 12 13 12 12 12 12 11 11 10 9 9 9 7 5 5 4 3 2 1 2
27 25 22 20 19 19 20 20 20 20 21 21 21 22 21 20 20 19 19 18 18 17 16 17 17 17 18 18 19 21 22 23 23 21 20 21 23 26 30 32 30 25 22 19 15 15 17 17 17 17 11 5 3 2 5 7 8 8 7 6 5 6 7 7 8 10 13 14 12 12 13 13 12 11 10 11 12 10 11 11 8 6 6 5 4 3 2 2
27 26 24 22 20 19 19 20 20 19 20 20 21 21 20 19 19 18 19 19 19 19 18 17 17 17 20 21 20 21 23 25 25 22 20 19 21 25 30 31 27 20 16 14 13 15 16 16 17 16 13 9 5 3 6 7 7 7 7 5 4 5 5 6 7 9 12 14 14 13 13 12 11 9 9 12 12 10 11 12 10 8 8 7 6 6 5 5
27 27 26 23 21 19 19 19 19 19 19 19 20 20 20 19 19 19 19 19 18 18 18 17 18 19 21 22 22 22 23 26 26 24 22 20 20 22 25 27 23 16 10 8 10 13 15 15 16 16 15 16 12 5 5 6 6 5 5 5 4 4 5 7 10 10 10 11 13 13 12 11 10 9 11 13 13 12 11 11 9 8 8 8 8 8 8 8
27 27 27 25 22 20 19 19 19 19 19 19 19 20 20 20 21 20 20 20 19 19 18 17 18 20 20 19 22 23 24 26 27 26 25 23 22 19 20 23 20 13 8 5 5 10 12 11 15 17 15 16 17 11 7 8 7 7 6 7 6 6 6 9 10 10 8 9 11 12 12 11 10 10 12 12 13 13 12 11 9 9 9 9 8 9 10 11
26 27 27 26 24 22 20 19 18 18 18 18 19 19 20 21 21 21 20 20 20 19 18 18 19 21 21 18 19 20 21 24 26 26 24 24 22 19 18 18 16 13 10 8 8 11 9 7 12 14 13 14 15 13 11 11 11 9 8 9 9 7 8 9 8 8 8 9 11 10 10 11 11 12 13 13 13 12 11 10 10 11 11 10 8 9 10 12
24 25 27 26 26 24 22 20 18 17 17 17 18 18 18 19 20 20 20 19 19 18 18 19 20 21 20 18 17 17 17 19 21 23 23 22 20 19 18 17 18 17 15 14 13 12 6 1 6 12 13 14 13 12 13 13 13 10 8 10 10 9 9 8 7 8 11 12 10 9 10 11 12 13 14 14 13 12 12 11 11 12 13 12 10 10 11 11
21 23 25 25 26 25 24 23 20 18 17 16 17 17 17 17 18 19 19 19 18 18 18 18 20 21 20 19 19 18 18 17 17 20 21 20 19 19 19 20 21 20 19 19 15 10 3 3 5 12 13 13 12 13 15 15 14 11 11 13 13 13 11 9 9 11 15 13 9 9 10 12 14 15 14 14 14 14 14 13 13 13 14 14 12 11 12 11
18 21 23 24 25 26 25 24 23 20 18 17 17 17 17 17 17 17 17 18 17 17 17 17 18 19 20 20 20 19 17 14 12 16 19 20 21 21 21 22 21 18 18 17 11 8 5 6 6 11 11 10 10 13 14 15 13 11 14 15 14 14 12 12 13 13 14 12 9 11 12 13 15 15 13 13 14 15 15 15 15 14 14 14 12 12 13 12
16 18 20 22 24 25 25 25 25 23 21 20 18 18 18 17 16 16 16 16 16 16 16 17 16 17 18 18 18 16 15 13 11 13 15 17 20 20 20 22 20 17 15 14 11 10 8 5 7 8 8 8 9 12 12 11 10 10 14 15 13 12 12 12 13 13 13 12 11 13 14 14 14 14 14 14 15 16 16 15 16 15 15 14 12 13 14 13
16 16 18 20 22 23 24 25 26 25 24 23 21 20 19 18 17 17 16 15 16 16 16 16 15 16 16 16 16 14 13 15 14 13 12 13 16 15 17 18 17 15 14 13 11 10 8 5 6 7 6 6 9 11 10 8 8 9 13 15 12 10 9 9 11 13 14 14 14 14 14 12 12 14 15 15 15 15 16 16 16 16 16 14 13 14 14 14
15 16 17 18 20 21 22 24 25 25 25 25 24 23 22 20 18 16 17 17 17 17 17 15 15 15 15 15 16 14 14 15 15 14 11 10 11 11 12 13 12 11 11 11 10 10 8 5 4 4 4 5 8 9 8 7 7 9 11 13 10 8 7 7 9 9 11 13 14 12 12 12 13 14 14 14 14 14 16 16 16 17 17 16 14 14 14 15
13 15 16 17 19 20 21 22 23 24 24 24 24 23 22 23 21 18 17 17 18 18 18 17 16 16 14 14 15 15 14 12 11 11 10 9 8 7 9 10 10 8 8 10 9 8 6 6 4 3 1 5 7 5 5 6 7 9 9 9 8 7 7 7 7 5 7 10 10 10 11 14 14 12 13 14 15 16 16 17 17 17 16 16 15 13 13 13
11 13 14 15 17 19 20 21 22 23 23 23 23 20 20 23 22 19 17 18 21 22 21 18 16 15 13 14 14 14 13 11 11 10 10 10 7 5 6 8 10 8 6 7 7 4 4 5 5 3 2 5 7 4 4 5 7 9 8 6 5 6 6 5 4 4 7 9 7 8 11 14 13 12 15 16 17 19 20 20 21 18 16 15 14 14 13 13
9 11 12 13 15 17 18 19 20 21 21 22 21 18 20 23 22 19 20 23 25 25 23 20 17 15 13 15 15 12 11 11 11 10 9 9 6 4 6 7 7 7 7 6 4 3 3 3 2 1 4 7 7 5 4 4 7 8 6 5 3 4 4 4 4 5 8 8 6 7 10 14 14 15 17 17 18 20 22 22 22 18 16 16 16 15 15 15
8 9 10 12 13 15 16 17 18 19 19 19 19 20 22 24 22 22 24 26 26 26 24 22 21 18 16 18 17 15 14 13 13 12 10 9 7 6 7 7 7 9 9 6 4 4 4 5 2 2 5 6 3 4 4 3 4 5 2 2 3 3 2 1 3 4 6 7 7 8 10 14 15 15 16 17 18 19 20 22 21 18 17 18 19 20 20 19
7 8 9 10 10 12 13 14 15 16 17 16 18 23 25 23 22 24 26 26 27 27 25 23 22 19 19 21 20 18 17 16 15 16 15 14 12 11 11 11 10 11 10 7 6 5 5 5 2 2 3 3 4 4 5 4 2 2 3 4 6 5 2 2 1 3 5 7 8 8 10 13 14 14 13 15 16 16 17 19 19 20 19 19 21 22 22 21
6 7 8 8 8 9 10 11 11 12 14 14 16 22 24 22 22 23 24 25 26 26 24 23 21 20 21 22 20 19 19 18 18 19 18 19 19 18 17 16 15 14 13 10 10 8 6 5 4 4 4 4 6 5 4 5 4 4 6 6 7 6 6 6 6 7 8 9 10 9 11 12 13 12 12 15 16 16 18 18 18 20 21 20 19 20 21 21
4 6 7 7 8 8 8 9 9 11 12 11 12 17 20 20 20 20 21 24 26 24 23 23 22 20 21 21 18 17 18 20 20 20 19 19 20 19 18 19 18 16 15 14 14 12 10 9 10 10 9 8 7 6 6 8 8 6 6 6 7 9 9 9 10 10 10 10 9 9 11 13 14 12 12 15 16 18 21 21 19 21 21 19 16 17 19 21
3 4 5 7 7 7 7 8 8 9 11 10 10 14 17 18 19 18 18 22 23 20 21 22 20 19 19 19 18 18 19 21 21 20 20 19 19 18 18 19 19 17 16 15 15 14 13 12 12 12 11 9 9 10 10 10 8 5 5 8 8 9 9 9 10 10 10 10 9 10 12 14 14 13 13 15 18 21 23 23 23 23 22 18 15 16 20 21
2 3 4 5 6 6 6 6 6 7 9 9 9 10 13 14 15 17 16 18 18 17 19 19 17 16 15 15 18 20 20 19 19 20 21 20 19 18 19 19 19 17 16 16 16 16 16 15 14 14 13 11 11 12 11 10 9 6 7 9 9 8 8 9 9 9 9 10 10 12 13 13 14 14 14 17 20 21 23 25 25 24 23 20 17 18 20 21
2 3 3 4 4 5 5 6 6 7 7 6 6 6 8 10 11 14 13 12 14 14 16 17 16 15 12 13 18 20 18 15 15 18 19 18 19 18 19 19 17 18 19 18 17 17 17 17 16 15 14 13 11 11 12 12 11 10 10 11 8 7 8 10 10 9 9 10 10 11 12 13 15 15 15 18 21 22 24 26 26 25 24 22 21 21 21 21
1 2 3 3 3 4 4 4 5 5 5 5 5 5 6 8 9 10 8 9 11 10 11 13 14 13 10 12 19 19 15 13 14 15 14 14 17 18 17 16 15 18 20 18 16 17 18 17 16 15 15 14 12 10 11 13 13 11 11 10 9 9 10 10 9 8 8 9 9 11 13 15 16 16 17 20 21 23 24 24 25 25 25 25 25 24 23 22
1 1 2 3 3 2 3 3 3 4 4 5 5 4 5 6 7 6 5 9 11 10 11 11 11 11 9 11 16 16 13 13 12 12 11 13 16 16 16 14 14 17 19 17 16 16 16 17 17 16 16 16 13 11 11 13 13 12 11 10 10 10 10 9 8 8 8 10 10 12 14 16 16 16 17 19 20 21 22 22 24 24 24 25 25 25 24 23
3 2 2 2 2 2 2 2 2 2 3 4 4 3 2 3 4 2 3 7 9 10 11 10 10 10 9 11 14 14 12 11 10 11 12 13 14 16 15 15 15 16 15 15 15 15 16 18 19 17 16 16 15 14 13 12 12 12 13 12 11 10 9 8 7 8 9 10 11 12 14 14 14 15 16 17 18 19 20 20 21 22 24 25 25 25 25 24
4 3 3 2 2 2 2 2 1 1 1 2 3 3 1 2 2 1 2 6 8 8 9 9 9 9 9 11 12 12 11 10 11 11 12 13 14 14 14 14 15 14 13 12 12 15 17 18 17 16 17 15 14 14 13 12 13 12 11 11 11 11 10 8 8 9 10 12 13 13 14 13 12 12 14 16 17 18 20 20 20 21 23 24 24 25 25 25
6 5 5 4 3 2 2 2 2 2 1 1 2 2 1 2 4 2 4 5 7 6 6 7 7 7 8 9 9 9 10 10 10 10 10 11 12 12 12 12 12 11 12 11 11 13 15 15 14 14 15 14 13 13 12 13 12 10 9 9 10 11 10 10 10 10 11 12 13 13 12 11 12 14 15 16 17 18 20 20 21 22 23 24 24 24 25 25
9 7 6 5 4 3 2 2 2 3 2 2 1 1 1 2 4 2 3 5 5 5 5 5 5 6 6 6 7 7 8 8 9 9 9 9 10 11 11 11 10 9 10 11 12 12 12 12 12 12 12 12 12 12 12 12 11 10 10 8 9 10 10 10 10 11 11 11 11 11 11 13 15 17 17 17 17 17 17 19 21 22 23 24 25 25 25 25
10 9 9 8 6 5 4 3 2 2 3 4 4 2 1 2 2 1 3 4 4 4 3 3 3 4 3 4 5 6 6 7 8 8 8 7 8 9 9 9 9 9 9 10 11 11 10 9 10 9 10 11 11 11 12 12 11 11 10 9 10 10 9 10 10 11 10 10 10 10 12 15 16 18 19 19 18 18 19 20 21 21 22 23 24 25 26 26
11 10 11 10 9 8 6 5 4 3 3 4 4 4 4 3 2 2 3 3 2 3 2 2 2 2 2 2 3 4 5 6 7 7 7 6 7 8 8 8 8 8 8 9 9 9 8 7 7 7 8 9 10 10 10 11 11 10 9 9 10 10 10 10 10 10 10 11 12 13 14 16 16 18 20 20 21 21 22 21 21 22 23 23 23 25 26 27
12 12 12 12 11 10 9 8 7 5 4 4 3 5 5 4 4 4 4 4 3 3 1 1 1 1 1 1 2 3 4 5 6 6 6 5 5 6 7 7 7 7 7 8 8 7 6 5 5 6 7 7 7 8 9 10 9 8 8 9 9 9 9 9 8 8 11 12 13 13 15 16 16 18 20 21 21 21 21 22 22 23 24 25 25 25 25 26
14 14 13 13 12 12 11 10 9 8 7 5 5 5 5 4 5 6 5 5 4 3 1 1 1 1 1 1 2 3 3 4 5 5 4 3 3 5 6 6 6 7 7 7 7 6 5 5 4 4 5 5 5 6 7 8 7 6 7 8 9 8 7 7 7 8 11 12 12 12 13 14 15 15 17 18 19 20 21 23 24 25 25 25 25 25 25 25
15 15 15 14 14 13 13 12 11 10 9 7 8 7 5 4 5 7 7 6 6 4 3 3 2 0 1 1 1 1 2 2 4 4 4 3 3 4 4 5 5 6 6 6 5 5 6 6 4 4 3 3 4 5 5 5 5 4 6 7 7 7 7 7 8 8 9 10 12 12 13 14 14 14 15 16 18 20 22 22 23 24 24 24 25 25 25 26
15 16 15 14 14 14 14 14 13 13 11 10 10 10 6 4 6 8 9 8 7 6 5 5 4 2 1 1 2 2 2 2 3 3 3 3 3 3 3 4 4 5 5 5 5 5 6 6 6 6 5 3 4 5 5 4 4 5 6 6 7 7 8 8 9 8 7 9 11 12 12 13 14 14 15 16 18 20 20 20 20 21 22 23 25 26 25 26
17 16 14 13 13 14 15 15 15 15 14 13 13 12 10 7 7 8 9 9 9 8 7 7 6 4 3 3 4 3 3 3 2 2 2 3 3 3 3 3 3 4 4 4 5 5 5 6 6 6 5 3 4 5 5 5 5 5 6 7 7 8 9 9 9 8 8 9 11 11 12 14 15 14 15 16 17 17 17 18 19 21 23 23 24 25 25 25
19 18 16 15 15 15 16 15 16 17 17 16 15 13 12 10 8 9 10 10 10 10 9 8 8 6 6 6 5 4 4 4 2 2 2 2 3 3 3 3 3 4 4 4 4 5 5 6 6 6 5 3 2 4 6 6 5 4 5 6 7 8 9 9 9 9 10 11 12 12 13 15 15 15 15 16 16 17 17 18 20 21 23 23 24 25 25 25
21 20 19 19 19 18 18 17 18 19 18 17 15 13 12 12 10 11 12 11 10 10 10 10 8 8 8 8 6 6 6 5 3 3 2 1 2 2 3 3 3 4 4 4 5 5 5 6 6 6 6 5 4 5 5 6 6 5 5 6 6 7 8 8 9 10 10 11 12 13 14 15 15 15 15 16 17 18 19 20 20 21 22 22 24 24 24 25
22 21 22 22 22 21 20 20 21 20 17 16 16 15 14 14 12 13 15 13 11 10 9 9 9 10 10 10 8 7 7 6 4 4 3 2 2 2 3 3 3 3 4 4 5 5 5 6 6 6 6 6 6 7 6 6 7 6 6 6 6 7 7 7 8 8 9 10 11 13 13 14 15 15 16 18 19 20 20 20 20 21 21 22 23 24 24 25
25 24 24 24 23 22 22 22 22 20 18 18 19 17 16 16 15 16 17 15 13 11 10 10 10 11 12 11 10 9 8 8 6 5 5 5 3 3 4 4 4 5 5 5 6 6 6 6 6 7 7 7 7 8 7 7 7 7 6 6 6 7 7 6 7 8 8 8 9 11 13 14 15 16 17 18 19 20 20 19 19 19 20 21 22 23 23 23
28 26 26 24 21 21 23 23 23 22 22 23 22 20 18 17 17 18 18 17 15 14 13 12 11 12 13 12 12 12 11 10 9 8 7 6 6 5 6 6 6 6 7 7 8 8 8 8 7 7 7 8 8 8 8 8 7 7 7 7 6 7 7 7 7 8 8 8 9 10 12 14 15 15 16 16 17 18 18 18 17 18 18 19 20 21 21 22
31 29 27 24 22 21 23 23 23 24 25 24 23 22 20 19 17 17 19 19 18 17 17 16 14 13 14 14 14 14 12 11 11 11 9 8 8 8 8 8 8 8 9 9 9 10 10 10 10 9 8 8 9 9 9 8 7 7 7 7 7 7 7 6 7 8 8 9 9 9 9 11 13 13 14 15 15 16 16 16 15 16 17 17 19 20 21 22
33 32 29 26 24 23 22 22 21 23 24 24 23 24 22 21 20 19 19 20 20 19 19 19 18 16 16 16 15 15 14 13 13 13 11 10 10 10 10 10 10 10 11 11 11 11 12 13 12 11 11 10 10 10 9 8 7 7 7 7 7 7 7 6 7 7 8 9 10 9 8 11 13 13 13 15 15 15 15 15 15 15 16 17 20 21 22 22
36 34 31 28 26 25 23 23 22 22 24 24 24 24 23 22 22 22 21 21 21 20 19 19 20 19 19 19 18 17 16 14 14 15 13 11 13 13 12 12 12 12 13 13 13 13 14 14 14 14 13 12 12 11 10 9 8 8 8 7 7 7 7 6 7 7 8 9 11 10 9 11 14 14 13 14 15 15 15 15 16 16 17 19 20 21 22 22
38 36 34 31 29 28 26 25 24 23 24 25 25 25 25 23 24 25 25 23 22 22 21 20 21 22 21 20 19 18 17 16 15 16 15 14 15 15 13 13 14 14 15 15 15 16 16 16 16 15 15 14 13 12 11 10 9 9 8 7 7 7 6 6 6 7 8 9 10 10 10 10 12 13 13 14 16 16 17 17 17 18 18 19 20 21 23 24
39 38 36 34 33 31 29 27 25 24 24 25 25 26 27 25 26 28 27 25 23 22 23 23 22 23 24 22 19 19 19 18 16 18 19 18 18 17 16 16 16 16 16 16 17 17 17 17 17 17 15 15 14 13 12 11 10 9 8 7 8 7 6 6 6 7 8 9 10 10 10 11 12 13 14 14 16 18 18 17 18 18 19 20 21 22 23 24
39 39 38 36 35 34 32 29 27 25 25 26 26 27 28 27 28 29 28 26 25 24 24 24 24 24 25 24 22 20 19 18 18 20 23 22 20 18 18 17 17 17 18 18 18 19 19 19 19 18 17 16 15 13 12 11 11 11 9 9 9 7 6 6 6 7 8 9 9 10 11 12 13 14 14 15 16 17 18 17 17 18 18 19 20 21 21 22
Wind_Direction
19 25 27 30 31 25 19 19 27 37 41 42 44 46 47 49 55 62 69 76 83 89 92 95 96 99 101 103 104 105 107 109 113 115 118 117 115 118 121 120 122 127 129 127 126 119 109 102 100 103 106 113 130 138 148 173 172 19 349 344 325 194 138 94 151 163 144 118 116 114 116 103 90 83 60 28 304 286 275 263 249 254 323 4 163 194 205 197
23 28 30 33 32 27 23 26 38 46 48 48 50 52 53 54 60 66 73 80 86 88 90 92 93 96 97 99 102 104 107 110 113 116 117 113 111 113 111 110 114 115 116 118 116 107 99 95 99 109 108 115 126 118 91 76 46 10 349 34 75 108 106 92 106 125 118 108 111 111 101 75 65 54 31 6 340 331 314 307 284 303 6 33 132 125 113 144
27 30 33 35 34 30 28 35 47 53 54 54 56 57 57 60 64 69 75 80 84 87 88 89 91 93 95 98 101 105 108 111 114 116 113 109 109 108 106 108 108 107 110 111 106 101 105 115 128 135 113 105 101 78 57 39 28 17 40 93 91 92 96 96 107 117 105 95 92 88 66 44 41 34 21 9 16 6 346 2 4 352 359 16 126 129 107 120
29 33 36 38 37 34 34 42 54 59 59 60 61 62 61 63 67 71 75 78 81 83 84 86 88 92 96 101 103 104 107 110 114 113 111 111 112 111 112 113 109 105 104 103 103 106 122 137 147 142 117 100 88 68 53 39 32 47 83 98 99 99 99 100 111 109 93 85 80 80 67 44 37 33 33 31 33 19 3 9 9 3 0 9 16 144 131 126
32 36 39 41 41 39 40 48 58 63 64 65 66 67 65 65 68 71 74 75 77 79 81 84 87 91 95 97 98 99 105 111 114 114 116 118 117 118 119 116 111 108 107 109 114 121 128 129 129 126 107 89 82 63 50 58 63 78 96 106 111 115 116 113 110 97 88 86 78 76 75 61 48 41 40 39 33 20 10 4 2 9 13 16 0 357 150 148
35 38 43 45 45 45 46 52 60 64 68 69 70 70 68 67 67 68 70 71 73 76 79 82 86 90 90 92 94 100 109 113 114 116 118 119 119 121 121 117 113 113 115 118 120 123 118 103 94 92 79 71 76 72 64 80 96 110 119 120 123 122 118 115 101 87 82 80 75 71 65 55 47 40 37 36 30 24 20 8 1 14 22 18 8 6 335 224
37 41 45 48 49 49 50 55 61 65 68 72 73 73 71 70 69 69 68 68 70 74 78 83 87 88 89 95 103 110 113 113 113 114 115 117 120 124 124 119 116 116 116 112 113 117 109 94 81 67 58 64 73 90 104 113 118 119 121 111 114 109 99 102 94 89 84 74 75 69 53 47 44 38 35 36 36 36 33 16 6 20 24 16 11 11 316 245
40 42 47 50 52 53 54 57 62 66 68 71 74 75 75 74 74 74 73 72 72 74 79 83 87 93 96 100 109 113 113 111 107 106 111 117 123 126 124 119 116 113 106 105 108 109 101 90 77 59 49 53 40 81 111 122 112 92 95 86 84 97 90 90 90 90 83 66 60 61 51 45 40 33 33 38 38 39 34 22 14 15 15 10 5 358 335 295
43 44 47 51 54 56 58 59 63 66 70 72 73 74 74 73 72 72 74 74 73 74 79 85 90 99 104 106 111 114 114 109 101 98 102 109 119 125 123 119 115 110 104 107 105 100 95 80 63 55 52 38 23 118 109 103 104 81 80 71 59 98 96 85 85 80 74 62 51 53 53 45 35 28 30 31 29 29 27 26 24 17 9 359 347 339 326 308
46 46 48 51 54 57 60 62 64 67 70 73 76 76 75 73 72 73 73 73 75 78 84 93 100 104 106 112 115 113 113 108 101 98 100 103 111 119 122 115 108 105 108 113 99 93 94 74 55 53 48 34 33 74 106 90 93 73 50 31 40 82 77 65 68 58 54 63 55 45 47 45 31 25 28 26 23 22 22 24 24 17 1 345 332 328 322 310
50 49 49 50 52 57 60 63 66 68 70 73 78 79 79 77 76 76 75 75 78 82 89 98 105 106 106 113 116 115 116 114 107 105 106 108 112 116 112 102 95 101 115 132 123 93 80 56 51 50 39 32 33 42 82 82 67 73 51 26 50 77 65 55 54 48 49 66 55 39 42 44 34 28 27 24 21 19 16 14 11 6 354 340 329 325 319 306
53 52 51 51 51 54 59 62 65 69 72 74 76 79 82 83 81 79 78 78 80 83 90 97 103 105 105 107 112 117 121 120 116 115 116 115 118 113 98 89 94 113 126 125 120 94 71 37 47 47 35 31 27 33 61 64 55 68 56 38 60 74 64 57 44 42 52 55 47 39 36 35 36 30 23 19 15 13 9 3 0 358 353 343 332 324 315 299
55 54 54 53 52 53 56 59 61 66 72 75 77 79 82 85 86 85 84 82 82 84 88 93 98 101 103 105 106 110 114 117 120 121 119 116 114 104 92 90 100 118 123 106 98 96 95 125 67 58 47 37 27 36 46 49 56 61 47 45 56 56 58 54 31 38 47 43 42 44 29 21 23 17 13 12 5 1 357 352 350 347 347 340 327 324 325 315
57 57 56 56 55 54 55 58 59 62 67 74 80 83 85 86 87 89 90 87 86 87 88 90 93 96 100 104 105 107 106 105 114 119 117 115 110 101 95 93 99 112 116 106 102 98 66 285 84 69 49 31 29 42 43 45 55 61 54 44 35 32 35 31 24 36 43 39 38 40 29 16 12 6 6 7 2 357 349 346 346 339 337 331 323 329 331 328
58 59 59 58 58 58 57 58 60 61 65 70 76 81 83 84 85 88 90 91 90 91 92 91 91 95 97 100 103 102 94 89 107 119 117 119 113 105 101 97 102 110 107 105 106 98 48 347 50 60 35 21 31 46 49 45 44 58 61 46 33 27 19 17 19 25 34 35 26 24 25 18 10 4 5 5 3 359 349 344 342 334 333 329 324 333 333 330
59 61 62 62 62 62 61 61 62 62 65 68 71 75 77 78 82 85 87 92 96 96 97 97 98 100 97 97 97 90 80 81 104 117 113 115 110 106 106 106 113 117 107 106 110 108 93 42 42 53 37 26 36 46 50 47 34 46 62 53 42 32 19 17 18 19 23 24 19 18 21 18 5 359 1 0 360 357 350 344 338 331 330 333 329 330 330 328
62 63 64 66 65 64 64 64 63 63 64 66 67 70 73 74 76 80 84 91 96 97 97 98 101 103 101 99 95 89 88 95 109 112 101 103 105 108 114 114 119 125 121 120 117 105 95 69 41 38 33 26 40 47 40 34 22 30 56 55 43 30 23 18 16 15 11 12 18 19 19 10 354 355 356 355 355 353 349 343 336 331 329 332 331 329 329 324
68 66 67 69 69 68 67 67 66 65 65 66 67 67 70 72 72 75 83 90 95 97 95 96 99 100 103 102 100 101 101 103 113 115 104 98 104 117 126 122 118 120 122 118 105 90 84 87 61 18 11 21 36 49 35 11 9 23 49 57 47 30 24 17 14 9 3 14 22 18 12 359 350 354 356 356 357 353 348 340 332 330 330 331 331 332 331 326
73 71 70 71 72 71 69 69 69 67 64 64 65 65 68 71 70 69 76 88 94 96 93 94 94 93 97 101 105 108 104 106 114 115 107 93 98 124 134 131 117 107 114 99 80 85 100 122 154 222 288 9 1 29 27 349 356 21 42 61 62 43 25 10 8 3 7 23 22 8 4 356 353 357 358 0 359 354 349 342 337 334 332 331 331 330 328 326
74 76 75 73 72 71 70 69 70 70 68 66 65 64 69 73 74 75 81 89 91 90 88 87 87 88 94 98 98 98 102 111 111 106 100 92 103 127 122 122 110 99 108 85 62 88 126 144 176 219 264 310 315 339 358 336 355 21 27 29 50 58 33 359 342 358 17 26 14 2 8 2 360 4 3 3 359 356 351 346 345 343 335 329 325 321 319 322
69 77 79 77 73 72 72 71 71 73 73 74 74 73 75 79 82 87 91 89 86 85 84 82 84 86 91 93 91 93 100 102 100 101 103 105 121 119 102 106 100 96 102 86 76 101 113 133 169 244 237 260 287 318 337 349 359 14 15 345 2 57 33 341 314 359 25 33 29 26 22 12 11 15 13 12 7 1 355 349 348 347 341 335 327 323 324 325
62 73 80 81 78 72 72 73 73 73 75 78 84 84 81 82 86 90 90 88 86 85 85 83 84 85 89 92 93 96 95 89 87 94 99 106 114 107 100 99 96 99 93 74 76 89 99 128 164 220 223 251 299 339 358 47 3 349 353 318 0 20 12 295 300 358 34 35 34 33 22 16 20 23 20 17 14 7 359 352 350 348 344 337 332 332 332 327
61 66 75 81 81 75 73 74 74 74 76 78 83 84 83 83 85 86 85 86 87 86 85 83 83 86 90 91 91 91 90 89 90 91 91 94 98 99 96 91 88 90 83 67 72 81 95 124 165 223 240 298 30 25 16 72 106 348 25 32 22 9 15 82 48 44 49 31 23 20 19 22 24 24 22 16 13 13 7 359 353 351 347 340 337 338 337 332
67 65 71 76 78 78 76 77 78 77 76 75 78 82 84 83 81 80 81 84 85 85 86 86 86 88 88 87 87 87 89 91 91 90 90 90 90 87 85 84 78 75 77 75 76 75 68 68 46 13 20 48 71 57 26 54 68 45 50 48 36 36 37 35 44 56 50 36 26 22 27 29 26 27 22 13 12 17 14 9 3 358 352 344 343 347 346 340
81 71 70 73 76 79 79 79 81 82 79 76 78 84 85 85 82 80 82 84 83 85 88 87 85 85 86 87 86 86 90 91 89 89 88 87 88 85 83 84 78 72 72 73 73 74 65 59 50 37 45 73 84 73 58 57 52 39 53 64 55 56 45 26 37 48 47 44 36 31 35 32 30 31 21 12 15 17 13 11 9 4 357 350 353 358 353 345
106 89 77 76 77 80 82 81 79 79 81 80 79 82 86 87 86 83 81 83 83 84 86 84 82 82 86 91 91 90 90 89 89 90 88 85 86 87 87 86 82 77 73 72 73 74 69 67 68 67 73 85 86 81 78 73 68 50 58 72 66 63 59 47 48 49 51 54 44 35 34 31 32 32 21 15 16 14 10 8 9 9 7 4 1 356 350 346
129 120 95 84 81 83 86 85 81 77 80 86 83 80 82 83 84 83 80 82 84 84 85 87 87 84 87 93 93 88 83 83 85 87 87 85 83 84 86 85 83 82 81 77 74 72 73 72 73 77 81 83 85 89 91 90 88 83 77 77 72 70 74 69 60 50 51 50 39 34 31 31 35 30 19 14 13 13 10 8 9 11 13 12 4 354 350 351
135 144 130 106 93 91 87 82 84 81 79 87 83 72 77 79 79 79 78 79 81 80 81 84 84 85 90 93 88 83 79 80 81 78 79 82 82 79 78 81 85 88 85 79 74 72 72 71 71 74 75 76 79 82 87 88 88 87 84 83 82 80 80 74 64 50 44 40 32 33 36 38 40 33 19 11 9 11 13 9 7 9 10 9 4 359 357 356
143 150 154 147 127 103 91 85 87 85 78 78 74 73 81 81 75 72 71 74 77 79 79 80 83 87 92 88 82 81 81 78 74 71 70 73 77 77 75 77 83 87 87 83 79 76 73 71 72 74 75 76 74 72 76 80 82 85 88 91 91 84 77 73 67 53 41 39 33 33 37 37 34 28 17 10 7 8 11 8 3 5 5 4 3 2 1 359
190 176 164 166 169 145 114 100 87 80 75 71 74 78 78 77 74 70 78 83 84 86 86 85 88 91 91 84 81 82 80 76 73 74 70 65 70 77 79 78 76 77 81 84 82 79 78 79 77 76 78 78 76 76 76 75 78 84 88 89 86 78 70 64 59 49 43 42 37 33 34 29 22 18 12 9 7 5 8 6 1 2 2 1 1 0 0 359
201 205 194 176 173 175 168 136 97 84 73 68 63 53 59 92 99 92 94 95 94 92 90 91 93 93 90 83 80 79 76 76 79 79 77 71 70 74 76 75 74 72 72 78 85 89 88 83 79 78 78 77 76 75 72 72 71 73 75 76 77 75 69 59 50 42 38 37 32 29 31 25 13 10 8 7 6 5 6 4 1 2 1 358 360 0 359 358
203 207 209 196 176 174 190 197 174 141 61 57 43 29 34 79 71 74 128 113 105 98 95 97 95 92 86 79 77 78 78 78 77 75 75 75 73 71 69 68 71 74 75 77 85 89 86 82 80 80 78 77 77 76 75 75 71 66 68 71 74 72 66 56 42 32 26 24 24 23 23 18 10 11 11 10 12 9 5 2 3 6 1 356 358 0 0 359
208 210 214 208 196 179 183 206 216 226 248 17 10 12 12 63 74 130 160 125 110 107 105 102 95 86 80 79 79 81 80 79 78 74 72 72 73 72 68 67 68 72 78 79 76 75 78 82 84 82 81 80 80 81 81 79 76 70 66 65 67 66 60 53 42 31 23 20 22 22 18 15 17 21 21 21 21 14 6 5 7 8 2 357 357 359 1 2
212 212 216 217 209 196 191 197 218 232 235 247 267 254 178 96 94 148 162 124 119 119 109 102 96 88 81 79 78 75 73 73 76 76 72 70 72 73 70 70 69 68 71 72 69 68 69 76 80 81 83 81 78 77 75 74 76 75 67 60 61 62 57 52 44 36 29 24 23 20 20 24 26 27 28 30 28 18 11 12 11 7 3 0 358 358 3 5
216 213 216 220 215 206 205 207 218 228 233 242 248 248 226 129 108 185 176 145 142 131 117 105 89 79 74 73 71 70 66 64 65 69 73 70 69 71 69 67 66 62 63 66 68 67 64 65 72 79 80 78 76 74 73 73 72 73 71 64 58 55 51 47 40 36 35 33 30 25 26 29 27 28 31 31 26 20 18 16 10 6 6 5 2 2 5 5
219 216 217 219 219 215 210 212 220 225 235 247 254 259 249 222 210 223 198 174 165 153 143 126 100 57 37 48 58 61 57 53 52 55 61 63 63 67 66 63 62 60 59 61 63 66 66 64 66 71 74 77 77 74 74 71 66 66 68 66 60 53 48 43 33 27 29 31 31 28 28 27 23 23 27 27 24 22 21 17 11 8 8 8 8 8 6 3
224 222 222 222 222 221 217 215 218 223 232 246 257 259 247 228 227 225 209 199 191 180 184 170 144 356 7 7 28 49 48 47 48 44 45 48 49 58 62 56 54 57 55 54 54 56 63 64 59 58 61 66 73 73 71 68 64 60 57 62 62 52 46 41 24 16 22 27 29 26 23 23 19 17 20 20 18 16 14 11 10 10 9 9 7 5 3 1
228 227 227 227 225 224 223 222 222 225 230 238 245 250 245 230 231 234 225 223 222 210 215 246 288 38 44 1 0 20 25 38 42 38 44 46 34 46 58 54 47 48 49 50 49 42 40 44 42 42 44 41 46 58 64 64 62 54 45 49 52 47 43 36 23 15 12 15 23 21 17 17 13 9 10 9 8 9 10 10 9 8 8 7 5 2 0 2
230 230 229 230 231 230 229 228 229 230 230 235 240 243 246 238 241 245 239 234 234 229 227 248 259 176 79 338 339 338 336 11 26 23 25 30 35 41 46 48 45 39 40 41 42 35 29 26 16 10 24 18 7 22 38 46 47 42 39 39 37 36 32 24 25 24 8 3 11 14 12 9 5 4 3 3 4 6 8 8 6 5 5 4 4 5 4 3
231 232 232 233 236 237 235 234 235 235 232 235 241 242 236 223 233 243 240 237 239 236 233 247 256 239 219 262 252 258 289 320 356 5 355 357 25 37 26 35 38 33 35 33 30 32 27 21 9 355 355 358 348 356 5 4 2 10 21 24 19 21 21 13 15 21 10 4 9 11 10 8 7 7 4 3 6 6 4 3 2 3 7 8 8 9 7 4
235 236 235 236 240 243 242 239 239 240 237 235 239 242 237 228 233 246 244 239 242 242 239 249 256 244 225 245 257 264 270 280 308 332 330 338 355 9 10 22 24 20 30 30 25 28 26 25 19 358 351 358 342 338 337 333 343 356 358 2 4 7 10 7 5 7 4 5 10 11 9 10 14 14 7 4 5 4 2 2 3 4 7 9 9 10 10 6
239 239 236 234 235 240 244 244 242 242 240 238 241 245 248 247 248 254 251 244 244 244 241 243 252 252 243 242 251 259 262 262 264 272 291 325 335 343 354 2 4 5 15 20 21 25 24 27 24 6 10 35 353 326 325 327 339 350 343 346 354 358 1 0 358 358 359 2 6 8 7 9 14 14 8 5 4 4 4 6 7 6 6 6 7 9 11 10
241 241 239 236 234 235 238 241 242 242 243 245 247 248 253 256 254 252 252 247 244 245 244 244 249 255 251 245 243 246 252 251 239 243 261 287 308 318 338 353 356 353 355 2 11 18 17 19 19 7 13 27 5 344 340 334 338 343 337 339 347 351 357 356 351 354 357 357 359 3 5 7 10 9 5 4 6 7 7 6 4 3 4 5 5 6 8 9
241 242 243 241 240 240 239 241 244 247 249 252 250 246 245 249 248 248 250 249 245 244 246 246 245 248 249 247 245 244 247 247 234 231 250 261 272 295 316 335 338 333 338 345 351 1 3 5 8 360 358 5 357 351 349 337 336 340 338 336 339 346 354 353 348 351 356 355 353 356 0 3 5 5 3 3 6 6 5 3 359 358 1 4 3 4 6 8
238 241 244 245 244 244 243 244 247 249 249 249 248 245 243 244 243 244 248 249 246 243 242 240 239 242 246 247 247 244 242 244 237 230 243 256 264 277 289 301 310 312 320 325 331 339 343 348 353 351 351 353 349 346 342 334 334 336 334 330 328 336 346 348 347 351 356 358 354 351 355 360 3 5 2 1 2 1 359 359 355 354 359 1 360 1 3 4
236 239 245 247 247 247 248 248 247 248 247 247 249 250 249 247 245 246 249 247 244 245 247 242 238 241 244 244 246 246 242 241 242 236 238 250 257 265 275 285 293 300 307 314 318 323 326 329 335 340 343 343 340 339 336 331 327 325 328 327 321 325 336 343 347 348 350 358 359 353 353 357 0 3 0 357 359 357 353 353 351 352 358 359 358 360 2 3
236 238 242 246 247 248 251 251 250 251 252 253 255 256 255 253 252 252 254 252 247 247 249 245 238 239 244 243 243 247 246 244 244 242 240 248 255 260 269 277 283 290 296 303 308 312 315 317 321 327 330 331 331 332 331 327 320 318 323 323 318 318 327 337 344 343 342 350 356 353 349 352 355 360 357 353 356 356 349 347 349 351 356 359 358 360 3 5
236 237 239 243 246 248 249 251 249 250 253 254 255 256 257 258 258 256 256 256 253 250 250 250 243 238 241 245 244 246 247 246 248 249 246 250 255 258 263 271 278 284 288 294 299 303 306 309 313 318 320 322 323 323 324 321 313 310 313 314 313 312 319 332 340 339 337 340 346 349 347 346 351 357 356 350 350 352 348 346 348 350 354 359 360 1 3 3
236 236 235 238 242 246 248 249 248 246 248 249 249 252 253 255 257 256 253 255 256 253 251 253 250 244 241 243 245 246 248 249 253 254 252 253 256 258 262 268 273 278 283 288 293 296 301 304 307 311 313 315 316 315 314 310 304 303 304 305 305 302 306 324 334 334 334 335 340 345 347 345 346 350 352 347 344 347 350 350 349 350 354 359 0 359 359 360
235 236 234 234 237 242 245 247 247 246 247 247 246 248 248 248 251 253 251 250 253 255 253 252 253 251 246 244 246 249 250 251 256 259 257 254 255 258 262 266 270 274 278 284 288 292 296 298 300 304 307 307 306 306 305 302 297 296 296 293 292 292 296 313 325 326 329 333 335 339 342 343 342 344 348 346 342 346 352 353 351 351 354 357 357 357 358 358
235 236 235 233 234 237 241 245 247 247 248 248 247 246 246 244 245 249 251 250 250 252 254 253 253 254 252 249 248 249 250 251 255 258 255 251 252 256 260 264 268 272 276 280 285 288 291 293 295 298 299 297 297 298 297 293 289 290 292 287 284 284 289 300 311 317 323 329 330 334 338 342 344 345 348 349 346 346 350 351 350 351 354 355 354 355 355 353
235 236 237 235 234 235 238 242 245 245 247 249 249 249 248 246 245 248 250 251 249 248 251 253 253 256 257 254 250 248 249 250 250 252 253 253 253 255 257 260 264 267 272 277 280 283 286 289 291 293 293 292 292 292 290 286 285 287 288 283 279 278 282 294 303 311 322 328 329 333 338 343 346 347 350 354 350 342 341 344 345 348 351 352 351 351 350 346
Height
5817 5815 5813 5812 5810 5809 5807 5805 5803 5802 5800 5798 5797 5795 5794 5793 5792 5791 5790 5789 5789 5788 5788 5788 5788 5789 5789 5789 5790 5790 5791 5792 5793 5794 5795 5796 5797 5799 5801 5802 5803 5805 5806 5807 5808 5809 5810 5811 5812 5812 5813 5815 5817 5819 5819 5818 5817 5816 5815 5814 5813 5813 5814 5813 5813 5817 5821 5821 5822 5823 5823 5824 5824 5825 5826 5826 5827 5827 5827 5827 5827 5827 5827 5826 5825 5825 5824 5824
5817 5816 5814 5813 5811 5810 5808 5806 5804 5803 5801 5800 5798 5797 5796 5795 5794 5793 5792 5792 5791 5791 5791 5791 5791 5791 5791 5791 5792 5792 5793 5793 5794 5796 5797 5797 5799 5801 5803 5804 5806 5807 5808 5809 5810 5811 5812 5813 5814 5815 5815 5817 5817 5818 5817 5816 5815 5815 5815 5814 5814 5813 5814 5814 5815 5819 5821 5822 5823 5823 5822 5823 5824 5825 5826 5826 5826 5827 5826 5826 5825 5825 5825 5825 5825 5824 5823 5823
5819 5817 5815 5814 5812 5811 5809 5807 5805 5804 5803 5801 5800 5799 5798 5797 5796 5795 5794 5794 5794 5793 5793 5793 5793 5793 5793 5793 5793 5794 5794 5795 5796 5797 5798 5799 5801 5803 5804 5806 5807 5809 5810 5811 5811 5812 5814 5815 5815 5815 5816 5817 5817 5816 5815 5815 5815 5816 5815 5815 5815 5815 5815 5816 5817 5819 5820 5821 5822 5822 5822 5823 5824 5825 5826 5826 5825 5826 5826 5825 5825 5824 5824 5824 5824 5824 5823 5823
5820 5818 5817 5815 5813 5812 5810 5808 5807 5805 5804 5803 5802 5801 5800 5799 5798 5797 5797 5796 5796 5796 5796 5795 5795 5795 5795 5795 5795 5796 5796 5797 5798 5799 5800 5802 5803 5804 5805 5807 5808 5810 5811 5812 5813 5814 5815 5815 5815 5816 5817 5817 5815 5815 5815 5816 5817 5816 5816 5816 5816 5816 5816 5816 5817 5818 5820 5821 5821 5822 5824 5824 5824 5825 5825 5825 5825 5825 5825 5824 5824 5824 5823 5823 5823 5823 5823 5823
5822 5820 5818 5816 5815 5813 5811 5810 5808 5807 5806 5805 5804 5803 5802 5801 5801 5800 5799 5799 5799 5798 5798 5798 5797 5797 5797 5797 5797 5798 5799 5800 5801 5801 5802 5803 5804 5805 5806 5808 5809 5810 5812 5813 5814 5815 5816 5816 5817 5817 5817 5815 5814 5815 5816 5817 5817 5817 5816 5816 5815 5815 5815 5816 5817 5818 5820 5821 5822 5824 5825 5825 5825 5824 5824 5825 5825 5825 5824 5824 5823 5823 5823 5823 5823 5823 5823 5823
5823 5821 5819 5817 5816 5814 5813 5811 5810 5809 5808 5807 5806 5805 5804 5804 5803 5802 5802 5801 5801 5800 5800 5800 5800 5800 5800 5800 5800 5801 5802 5802 5803 5804 5804 5805 5805 5806 5808 5809 5810 5811 5813 5814 5815 5815 5815 5817 5818 5817 5816 5816 5815 5816 5817 5817 5817 5817 5816 5815 5815 5815 5815 5816 5818 5819 5820 5821 5822 5823 5824 5824 5824 5824 5824 5825 5825 5824 5824 5823 5823 5822 5822 5822 5822 5822 5823 5823
5825 5823 5821 5819 5817 5816 5814 5813 5812 5811 5810 5809 5808 5807 5806 5806 5805 5805 5804 5803 5803 5803 5802 5802 5802 5802 5802 5802 5802 5803 5804 5805 5805 5806 5806 5807 5807 5808 5809 5810 5811 5813 5815 5816 5816 5816 5816 5817 5818 5817 5818 5818 5817 5817 5818 5817 5818 5818 5817 5817 5817 5817 5817 5818 5819 5820 5820 5821 5822 5823 5824 5823 5824 5824 5824 5825 5825 5824 5824 5823 5822 5822 5822 5822 5822 5822 5823 5823
5827 5824 5822 5820 5819 5818 5816 5815 5814 5812 5812 5811 5810 5809 5808 5808 5807 5807 5806 5805 5805 5805 5804 5804 5804 5804 5804 5805 5806 5806 5806 5807 5807 5808 5809 5809 5809 5810 5810 5812 5814 5816 5817 5817 5816 5816 5817 5818 5817 5818 5820 5820 5819 5819 5819 5819 5820 5820 5819 5819 5819 5820 5819 5820 5821 5821 5821 5822 5823 5824 5824 5824 5824 5824 5825 5825 5824 5824 5823 5823 5822 5821 5821 5821 5821 5821 5822 5822
5829 5826 5824 5822 5821 5819 5818 5817 5815 5814 5813 5813 5812 5811 5811 5810 5809 5809 5808 5807 5807 5806 5806 5806 5806 5806 5806 5807 5808 5808 5808 5808 5809 5811 5811 5812 5812 5812 5812 5814 5816 5818 5818 5818 5817 5817 5817 5817 5817 5819 5821 5821 5820 5820 5820 5821 5821 5822 5821 5819 5820 5822 5821 5821 5821 5822 5823 5824 5825 5825 5825 5825 5825 5825 5825 5824 5824 5824 5823 5822 5822 5821 5821 5821 5821 5820 5820 5821
5831 5829 5826 5824 5822 5821 5820 5818 5817 5816 5815 5814 5814 5813 5813 5812 5811 5811 5810 5809 5809 5808 5808 5808 5809 5809 5809 5809 5810 5810 5810 5810 5810 5812 5814 5815 5815 5815 5815 5816 5818 5820 5820 5820 5819 5817 5817 5818 5818 5819 5821 5821 5820 5820 5821 5821 5822 5822 5822 5821 5821 5822 5822 5822 5823 5823 5824 5825 5826 5826 5826 5826 5825 5825 5824 5824 5823 5823 5822 5822 5822 5822 5821 5821 5821 5821 5820 5820
5833 5831 5829 5826 5825 5823 5821 5820 5819 5818 5817 5816 5816 5815 5814 5814 5813 5813 5812 5812 5811 5811 5810 5811 5811 5811 5811 5811 5811 5811 5812 5811 5811 5813 5815 5816 5817 5818 5818 5819 5820 5822 5822 5822 5821 5818 5817 5819 5820 5821 5822 5822 5821 5821 5822 5823 5823 5822 5823 5822 5822 5822 5823 5823 5824 5825 5825 5826 5826 5826 5827 5827 5826 5825 5823 5823 5823 5822 5822 5822 5822 5822 5822 5822 5821 5821 5821 5820
5835 5833 5831 5829 5827 5825 5823 5822 5821 5820 5819 5818 5817 5817 5816 5816 5815 5815 5814 5814 5814 5813 5813 5813 5813 5812 5813 5814 5814 5814 5813 5813 5813 5814 5815 5816 5818 5819 5819 5820 5822 5824 5824 5824 5822 5820 5819 5821 5823 5823 5824 5824 5824 5824 5823 5823 5823 5823 5824 5823 5822 5823 5824 5824 5824 5826 5826 5825 5825 5826 5827 5827 5826 5825 5824 5823 5822 5822 5821 5821 5821 5821 5821 5821 5820 5820 5820 5819
5837 5835 5833 5831 5829 5827 5825 5824 5823 5822 5821 5820 5819 5819 5819 5818 5817 5817 5816 5816 5816 5816 5816 5815 5815 5814 5814 5815 5816 5817 5816 5816 5815 5815 5816 5817 5818 5819 5820 5821 5822 5824 5825 5825 5823 5822 5822 5824 5825 5825 5825 5826 5826 5825 5824 5824 5824 5824 5824 5823 5823 5823 5824 5824 5825 5826 5825 5825 5826 5827 5827 5826 5825 5825 5824 5823 5822 5821 5821 5820 5820 5819 5819 5819 5818 5818 5818 5818
5839 5837 5836 5834 5832 5830 5828 5826 5825 5824 5823 5822 5821 5820 5820 5820 5819 5818 5818 5818 5818 5818 5818 5818 5817 5817 5817 5817 5817 5818 5819 5819 5819 5818 5818 5819 5820 5821 5821 5822 5824 5825 5826 5825 5825 5824 5823 5824 5826 5825 5826 5827 5827 5826 5825 5825 5825 5825 5825 5824 5823 5823 5823 5824 5824 5824 5825 5826 5827 5827 5827 5825 5824 5824 5823 5822 5821 5821 5820 5820 5819 5818 5818 5817 5816 5817 5817 5818
5841 5839 5838 5836 5834 5832 5830 5828 5827 5826 5825 5824 5823 5822 5822 5821 5821 5820 5820 5819 5819 5819 5819 5820 5820 5820 5819 5820 5819 5819 5820 5820 5821 5821 5820 5820 5820 5821 5822 5822 5825 5827 5827 5827 5827 5827 5825 5824 5824 5826 5826 5827 5827 5826 5826 5826 5825 5825 5825 5825 5824 5823 5822 5822 5822 5823 5824 5826 5826 5826 5826 5824 5823 5823 5822 5822 5821 5820 5819 5819 5818 5817 5817 5816 5815 5817 5818 5817
5843 5841 5840 5838 5837 5835 5833 5831 5829 5828 5827 5826 5825 5824 5824 5823 5822 5822 5821 5821 5821 5821 5821 5821 5822 5822 5821 5822 5821 5821 5821 5821 5823 5823 5823 5823 5822 5823 5823 5823 5825 5827 5828 5828 5828 5827 5826 5824 5824 5826 5827 5827 5827 5827 5826 5826 5826 5825 5826 5827 5826 5825 5824 5822 5822 5822 5823 5825 5825 5825 5824 5823 5823 5822 5822 5821 5820 5820 5819 5818 5817 5816 5816 5816 5816 5816 5816 5815
5844 5843 5842 5840 5839 5837 5835 5834 5832 5830 5829 5828 5827 5826 5825 5825 5825 5824 5823 5823 5823 5822 5822 5822 5823 5823 5823 5823 5822 5822 5823 5823 5824 5825 5825 5825 5824 5825 5825 5825 5825 5826 5826 5827 5828 5827 5827 5826 5825 5826 5827 5827 5827 5827 5827 5827 5826 5825 5826 5827 5827 5826 5825 5824 5824 5823 5823 5823 5824 5823 5822 5823 5823 5823 5822 5821 5820 5819 5818 5817 5816 5815 5815 5815 5815 5814 5813 5812
5846 5845 5844 5842 5841 5840 5838 5836 5834 5833 5832 5830 5829 5828 5827 5827 5826 5826 5825 5825 5825 5824 5823 5824 5824 5824 5824 5824 5824 5824 5825 5825 5825 5825 5826 5826 5826 5826 5826 5826 5826 5826 5826 5827 5828 5828 5828 5827 5827 5827 5827 5827 5827 5827 5827 5826 5826 5826 5827 5828 5828 5827 5826 5825 5825 5825 5824 5824 5824 5823 5823 5823 5824 5823 5822 5820 5819 5819 5818 5816 5815 5814 5813 5812 5812 5811 5811 5810
5847 5846 5845 5844 5843 5842 5840 5839 5837 5835 5834 5833 5831 5830 5829 5828 5828 5828 5828 5828 5827 5826 5825 5825 5825 5825 5826 5826 5826 5826 5826 5826 5827 5826 5826 5826 5827 5827 5827 5827 5827 5827 5827 5827 5828 5829 5829 5829 5828 5828 5828 5828 5828 5827 5826 5826 5826 5826 5827 5828 5828 5827 5826 5826 5826 5826 5826 5826 5825 5824 5824 5824 5823 5822 5821 5820 5819 5818 5817 5815 5814 5813 5811 5810 5809 5810 5810 5809
5848 5847 5847 5846 5845 5843 5842 5841 5839 5837 5836 5835 5834 5834 5833 5831 5830 5830 5831 5830 5829 5827 5827 5827 5826 5826 5827 5827 5827 5827 5827 5828 5828 5828 5827 5827 5828 5829 5828 5827 5827 5828 5828 5828 5829 5829 5829 5829 5829 5829 5829 5829 5828 5827 5826 5826 5826 5826 5826 5827 5827 5827 5826 5826 5826 5826 5826 5826 5826 5825 5825 5824 5823 5821 5820 5819 5817 5815 5813 5812 5811 5810 5809 5809 5809 5809 5809 5808
5849 5848 5848 5847 5846 5845 5844 5843 5842 5840 5839 5838 5837 5837 5836 5834 5833 5834 5834 5832 5830 5829 5828 5828 5827 5828 5829 5829 5829 5829 5829 5829 5828 5828 5828 5829 5829 5829 5829 5828 5828 5828 5829 5829 5829 5829 5829 5829 5829 5829 5829 5828 5828 5827 5826 5826 5826 5826 5826 5826 5826 5827 5826 5826 5825 5826 5826 5826 5826 5826 5825 5824 5822 5820 5819 5818 5816 5813 5810 5809 5809 5808 5807 5806 5806 5806 5805 5804
5850 5849 5849 5848 5848 5847 5846 5846 5845 5844 5843 5841 5840 5839 5838 5837 5837 5837 5835 5833 5832 5831 5830 5830 5830 5831 5832 5831 5831 5831 5831 5830 5830 5829 5829 5830 5830 5830 5829 5829 5828 5828 5828 5828 5828 5828 5828 5829 5829 5828 5828 5827 5827 5827 5827 5827 5826 5826 5826 5826 5826 5826 5827 5826 5826 5826 5826 5826 5826 5826 5825 5824 5822 5821 5820 5819 5817 5814 5811 5808 5807 5807 5805 5804 5802 5801 5801 5800
5851 5850 5849 5849 5849 5848 5848 5847 5847 5846 5846 5845 5844 5841 5839 5839 5839 5838 5836 5835 5834 5833 5832 5832 5832 5833 5834 5833 5832 5832 5832 5832 5831 5830 5830 5830 5830 5830 5830 5830 5830 5829 5829 5829 5829 5829 5829 5828 5828 5827 5827 5827 5827 5827 5827 5827 5827 5827 5827 5827 5826 5826 5827 5826 5826 5826 5826 5826 5826 5826 5825 5824 5823 5822 5822 5820 5818 5816 5814 5811 5807 5805 5804 5802 5801 5799 5798 5797
5851 5851 5850 5850 5849 5849 5849 5849 5848 5848 5848 5847 5846 5843 5841 5841 5841 5840 5839 5837 5836 5835 5835 5835 5835 5836 5836 5835 5835 5835 5834 5834 5833 5832 5832 5831 5831 5831 5831 5830 5830 5830 5830 5830 5830 5830 5829 5829 5828 5827 5827 5827 5828 5827 5827 5827 5827 5827 5827 5827 5826 5826 5826 5826 5826 5826 5825 5825 5825 5825 5825 5824 5823 5823 5822 5820 5818 5817 5815 5813 5810 5807 5804 5802 5801 5799 5798 5797
5851 5851 5851 5850 5850 5850 5850 5850 5849 5849 5848 5849 5848 5846 5844 5843 5842 5842 5841 5839 5838 5838 5838 5837 5837 5838 5837 5837 5837 5837 5836 5836 5835 5834 5834 5834 5833 5833 5833 5832 5831 5831 5831 5831 5831 5830 5830 5829 5828 5828 5828 5828 5828 5827 5827 5827 5827 5827 5827 5827 5826 5826 5826 5826 5825 5825 5825 5825 5825 5825 5825 5824 5823 5823 5821 5820 5818 5816 5815 5813 5812 5809 5806 5803 5801 5800 5799 5797
5852 5851 5851 5851 5851 5851 5850 5850 5850 5850 5849 5849 5850 5848 5846 5845 5844 5844 5844 5841 5840 5841 5840 5839 5839 5840 5840 5839 5839 5839 5838 5837 5837 5836 5836 5836 5835 5835 5835 5834 5833 5833 5833 5832 5832 5831 5831 5830 5829 5829 5829 5829 5828 5828 5828 5828 5827 5827 5827 5827 5826 5826 5826 5826 5826 5826 5826 5826 5825 5825 5825 5824 5824 5823 5821 5819 5817 5815 5814 5812 5811 5808 5806 5804 5802 5801 5799 5797
5852 5852 5851 5851 5851 5851 5851 5850 5850 5850 5850 5850 5850 5849 5848 5847 5846 5846 5845 5844 5843 5843 5842 5841 5841 5841 5842 5842 5841 5840 5839 5839 5839 5838 5837 5837 5837 5837 5836 5835 5834 5834 5834 5834 5833 5833 5832 5831 5831 5830 5830 5830 5829 5829 5828 5828 5828 5828 5828 5827 5827 5827 5827 5827 5826 5826 5826 5826 5825 5824 5824 5824 5824 5822 5820 5819 5817 5815 5813 5811 5809 5808 5806 5804 5803 5801 5799 5797
5852 5852 5851 5851 5851 5851 5851 5851 5851 5851 5851 5851 5851 5850 5849 5848 5848 5847 5846 5846 5845 5845 5844 5843 5843 5843 5844 5844 5841 5840 5840 5841 5841 5840 5839 5839 5838 5838 5838 5837 5836 5835 5835 5834 5834 5834 5833 5833 5832 5832 5831 5831 5831 5830 5829 5829 5828 5828 5828 5828 5828 5828 5828 5827 5827 5827 5826 5825 5825 5825 5825 5825 5823 5822 5820 5818 5816 5814 5812 5810 5809 5808 5806 5804 5803 5801 5799 5797
5852 5852 5851 5851 5851 5851 5851 5851 5851 5851 5851 5851 5851 5851 5850 5849 5849 5848 5848 5847 5847 5846 5846 5845 5845 5845 5846 5845 5842 5841 5842 5842 5842 5841 5842 5841 5840 5839 5839 5839 5839 5837 5836 5835 5836 5835 5835 5834 5834 5834 5833 5833 5832 5832 5831 5830 5830 5829 5829 5829 5829 5829 5828 5828 5827 5827 5827 5826 5826 5825 5825 5823 5822 5821 5820 5818 5816 5814 5813 5811 5809 5808 5806 5804 5802 5800 5798 5796
5852 5852 5851 5851 5851 5851 5851 5851 5851 5851 5851 5851 5851 5851 5850 5850 5849 5849 5849 5848 5848 5847 5847 5847 5846 5847 5847 5846 5844 5843 5844 5844 5843 5843 5843 5843 5842 5841 5841 5841 5841 5840 5838 5837 5837 5836 5836 5836 5835 5835 5834 5834 5833 5833 5833 5832 5832 5831 5830 5830 5830 5829 5829 5828 5828 5828 5828 5827 5826 5825 5824 5822 5821 5820 5819 5818 5816 5814 5813 5812 5810 5808 5806 5804 5802 5799 5797 5795
5851 5852 5851 5851 5851 5851 5851 5851 5851 5851 5851 5851 5851 5851 5851 5850 5850 5850 5850 5849 5849 5848 5848 5848 5848 5848 5848 5847 5846 5845 5845 5845 5845 5845 5844 5844 5843 5843 5842 5842 5841 5841 5840 5839 5839 5838 5838 5837 5836 5836 5836 5835 5835 5835 5834 5834 5834 5833 5832 5831 5830 5830 5829 5829 5829 5828 5828 5827 5826 5825 5823 5822 5821 5820 5819 5817 5816 5814 5813 5812 5810 5808 5806 5804 5802 5799 5797 5795
5851 5851 5851 5851 5851 5851 5851 5851 5851 5851 5851 5851 5851 5851 5851 5851 5851 5850 5850 5850 5850 5849 5849 5849 5849 5848 5848 5847 5847 5847 5847 5847 5847 5846 5846 5845 5844 5843 5843 5842 5842 5842 5842 5842 5842 5840 5839 5838 5837 5837 5837 5837 5836 5836 5836 5835 5835 5834 5833 5833 5832 5831 5830 5830 5829 5828 5827 5826 5825 5824 5823 5823 5822 5821 5819 5817 5815 5813 5811 5810 5809 5808 5805 5803 5802 5799 5797 5795
5849 5850 5850 5850 5850 5850 5850 5850 5850 5851 5851 5851 5851 5851 5851 5851 5851 5851 5851 5850 5850 5850 5850 5849 5849 5849 5848 5848 5848 5848 5848 5848 5848 5848 5847 5846 5845 5845 5844 5844 5843 5843 5843 5843 5843 5842 5840 5840 5839 5839 5838 5838 5838 5837 5837 5836 5835 5835 5835 5834 5833 5832 5831 5830 5829 5828 5827 5826 5825 5824 5823 5823 5822 5820 5818 5817 5815 5813 5811 5809 5808 5806 5804 5803 5801 5799 5797 5795
5848 5849 5850 5850 5850 5850 5850 5850 5850 5850 5850 5850 5850 5850 5851 5851 5851 5851 5851 5850 5850 5850 5850 5850 5849 5849 5849 5849 5849 5849 5849 5849 5849 5848 5848 5847 5847 5846 5845 5845 5845 5845 5844 5843 5843 5842 5842 5841 5841 5840 5840 5839 5838 5838 5837 5837 5837 5836 5836 5835 5834 5832 5832 5830 5829 5828 5827 5826 5825 5825 5824 5823 5821 5819 5818 5817 5815 5814 5812 5809 5807 5805 5804 5802 5800 5798 5797 5794
5847 5848 5848 5849 5849 5849 5849 5849 5849 5850 5850 5850 5850 5850 5851 5851 5851 5851 5851 5850 5850 5850 5850 5850 5850 5850 5850 5850 5849 5849 5849 5849 5849 5849 5849 5849 5848 5847 5846 5846 5846 5845 5845 5844 5843 5843 5843 5842 5842 5841 5840 5839 5839 5838 5838 5838 5837 5837 5836 5836 5835 5833 5832 5831 5830 5829 5828 5828 5826 5825 5824 5822 5820 5819 5818 5817 5815 5813 5811 5809 5807 5805 5803 5801 5799 5797 5795 5793
5846 5846 5847 5847 5848 5848 5849 5849 5849 5849 5849 5849 5849 5850 5850 5850 5850 5851 5851 5850 5850 5850 5850 5850 5850 5850 5850 5850 5850 5849 5849 5849 5849 5849 5849 5849 5848 5848 5847 5847 5846 5846 5845 5845 5844 5844 5844 5843 5843 5842 5841 5840 5840 5839 5839 5838 5838 5837 5836 5835 5835 5834 5833 5832 5831 5829 5828 5827 5826 5824 5823 5822 5820 5819 5818 5816 5814 5812 5810 5809 5807 5805 5803 5801 5799 5796 5794 5792
5844 5845 5845 5846 5846 5847 5848 5848 5848 5848 5848 5849 5849 5849 5849 5849 5850 5850 5850 5850 5850 5850 5850 5850 5850 5850 5850 5850 5850 5849 5849 5849 5849 5849 5849 5849 5848 5848 5847 5847 5847 5846 5846 5845 5845 5845 5844 5844 5843 5843 5842 5841 5841 5840 5839 5839 5838 5838 5837 5836 5835 5834 5833 5832 5832 5830 5828 5827 5826 5824 5823 5822 5820 5818 5817 5815 5813 5811 5810 5808 5806 5804 5802 5800 5798 5796 5794 5791
5842 5843 5843 5844 5845 5846 5846 5847 5847 5847 5848 5848 5848 5848 5848 5849 5849 5849 5849 5849 5849 5850 5850 5850 5849 5850 5850 5850 5849 5849 5849 5849 5849 5849 5849 5849 5849 5848 5848 5847 5847 5846 5846 5846 5845 5845 5845 5844 5844 5843 5843 5842 5841 5841 5840 5840 5839 5839 5838 5836 5835 5835 5834 5833 5832 5830 5828 5827 5826 5825 5823 5822 5821 5819 5817 5815 5813 5812 5810 5808 5806 5804 5802 5800 5798 5796 5793 5791
5840 5840 5841 5842 5843 5844 5845 5845 5846 5846 5846 5847 5847 5847 5848 5848 5848 5848 5849 5849 5849 5849 5849 5849 5849 5849 5849 5849 5849 5849 5849 5849 5849 5849 5849 5849 5849 5848 5848 5847 5847 5847 5846 5846 5845 5845 5845 5844 5844 5843 5843 5843 5842 5842 5841 5840 5840 5839 5838 5837 5836 5835 5834 5833 5832 5831 5829 5828 5826 5825 5824 5822 5821 5819 5818 5816 5814 5812 5810 5808 5806 5804 5802 5800 5798 5796 5793 5791
5838 5838 5840 5841 5842 5842 5843 5844 5844 5844 5845 5845 5845 5845 5847 5847 5847 5847 5848 5848 5848 5849 5849 5849 5848 5849 5849 5849 5848 5849 5848 5849 5849 5849 5848 5848 5848 5848 5848 5847 5847 5847 5846 5846 5845 5845 5845 5844 5844 5843 5843 5842 5842 5842 5841 5841 5840 5839 5838 5837 5836 5835 5834 5833 5832 5831 5830 5828 5827 5825 5824 5822 5821 5819 5817 5816 5814 5812 5810 5809 5807 5805 5803 5801 5798 5796 5794 5791
5836 5837 5838 5840 5840 5841 5841 5842 5842 5842 5843 5843 5843 5844 5845 5846 5846 5846 5847 5847 5847 5848 5848 5848 5848 5848 5848 5848 5848 5848 5848 5848 5849 5848 5848 5848 5848 5848 5847 5847 5847 5846 5846 5846 5846 5845 5845 5844 5844 5843 5842 5842 5842 5842 5842 5841 5840 5838 5837 5836 5836 5835 5834 5833 5832 5831 5830 5828 5827 5825 5824 5822 5821 5819 5817 5816 5814 5813 5811 5809 5807 5805 5803 5801 5799 5797 5794 5792
5834 5835 5836 5837 5838 5838 5839 5840 5840 5840 5841 5841 5842 5843 5844 5845 5845 5845 5845 5846 5846 5846 5847 5847 5847 5847 5847 5847 5847 5847 5847 5848 5848 5848 5847 5848 5848 5847 5847 5847 5846 5846 5846 5846 5846 5845 5845 5844 5844 5843 5842 5842 5842 5842 5841 5840 5839 5838 5837 5836 5835 5834 5833 5832 5831 5830 5829 5827 5826 5825 5823 5822 5820 5818 5817 5815 5814 5813 5811 5808 5806 5804 5802 5800 5799 5797 5795 5792
5832 5833 5834 5835 5835 5836 5836 5837 5837 5837 5839 5840 5841 5842 5843 5843 5844 5844 5844 5844 5845 5845 5846 5846 5847 5847 5846 5846 5846 5846 5846 5847 5847 5847 5847 5847 5847 5847 5846 5846 5846 5846 5845 5845 5845 5845 5845 5844 5844 5843 5842 5842 5841 5841 5840 5839 5838 5838 5836 5835 5835 5834 5833 5832 5830 5829 5828 5826 5825 5824 5822 5821 5820 5818 5817 5815 5814 5811 5809 5807 5805 5803 5802 5800 5798 5796 5794 5792
5830 5831 5831 5832 5832 5833 5834 5835 5835 5836 5838 5838 5839 5840 5841 5841 5842 5843 5842 5843 5844 5844 5845 5845 5846 5845 5845 5845 5845 5845 5845 5846 5846 5846 5846 5846 5846 5846 5846 5846 5846 5845 5845 5845 5845 5845 5844 5844 5844 5843 5842 5841 5841 5840 5840 5839 5838 5837 5836 5835 5834 5833 5833 5832 5830 5829 5828 5826 5825 5823 5822 5821 5819 5818 5816 5814 5812 5810 5808 5807 5805 5803 5801 5799 5798 5796 5794 5792
5827 5828 5828 5829 5830 5831 5832 5833 5833 5835 5836 5835 5836 5837 5839 5839 5840 5840 5840 5841 5842 5843 5844 5844 5844 5844 5844 5844 5844 5844 5844 5845 5845 5846 5846 5845 5845 5845 5845 5845 5845 5845 5845 5844 5844 5844 5844 5843 5843 5842 5842 5841 5840 5839 5839 5838 5837 5836 5835 5834 5833 5833 5832 5831 5830 5829 5828 5826 5825 5823 5821 5820 5819 5817 5815 5813 5811 5809 5808 5806 5805 5803 5801 5799 5797 5796 5794 5792
5824 5825 5825 5827 5829 5830 5830 5830 5831 5832 5832 5833 5834 5835 5837 5838 5838 5838 5838 5839 5841 5841 5842 5842 5843 5843 5843 5843 5843 5843 5843 5844 5844 5844 5845 5845 5845 5845 5844 5845 5844 5844 5844 5843 5843 5843 5843 5842 5842 5842 5841 5840 5839 5839 5838 5837 5836 5835 5834 5834 5833 5832 5831 5830 5829 5828 5827 5826 5824 5823 5821 5819 5818 5816 5815 5813 5811 5810 5808 5807 5805 5803 5801 5799 5797 5796 5794 5791
5820 5822 5823 5825 5827 5827 5827 5828 5829 5830 5830 5831 5833 5833 5834 5835 5836 5836 5836 5837 5838 5839 5839 5840 5841 5841 5841 5841 5842 5842 5842 5843 5842 5843 5843 5844 5844 5844 5843 5844 5843 5843 5843 5842 5842 5842 5841 5841 5841 5841 5840 5840 5839 5838 5837 5836 5835 5834 5833 5832 5832 5831 5830 5829 5828 5827 5826 5825 5824 5822 5821 5819 5818 5817 5815 5813 5811 5810 5808 5807 5805 5803 5801 5799 5797 5795 5793 5791
5816 5818 5821 5823 5824 5824 5825 5826 5827 5827 5828 5829 5830 5830 5832 5833 5833 5834 5834 5834 5835 5836 5837 5837 5838 5839 5839 5839 5840 5840 5841 5841 5841 5841 5842 5842 5842 5842 5842 5842 5842 5842 5842 5841 5841 5840 5840 5839 5839 5839 5839 5838 5837 5836 5836 5835 5834 5833 5832 5831 5831 5830 5829 5828 5827 5826 5825 5824 5823 5821 5820 5819 5817 5816 5814 5812 5811 5810 5808 5807 5805 5803 5801 5799 5796 5794 5792 5790
5812 5814 5817 5819 5820 5821 5822 5823 5824 5824 5824 5825 5827 5827 5829 5830 5830 5831 5831 5832 5832 5834 5834 5835 5835 5836 5837 5837 5838 5839 5839 5840 5840 5840 5840 5841 5840 5840 5841 5841 5841 5840 5840 5840 5839 5839 5838 5838 5837 5837 5837 5836 5836 5835 5834 5834 5833 5832 5831 5830 5829 5829 5828 5827 5826 5825 5824 5823 5821 5820 5819 5818 5816 5815 5814 5812 5810 5809 5807 5806 5804 5802 5800 5797 5795 5793 5791 5789
5808 5810 5813 5816 5816 5817 5818 5819 5820 5821 5821 5822 5823 5824 5825 5827 5827 5827 5828 5829 5829 5830 5831 5832 5832 5833 5834 5835 5836 5837 5838 5838 5838 5838 5838 5839 5838 5838 5839 5839 5839 5839 5838 5838 5837 5837 5837 5836 5836 5835 5835 5834 5834 5834 5833 5832 5831 5830 5830 5829 5828 5828 5827 5826 5825 5824 5823 5822 5820 5819 5818 5817 5816 5814 5813 5811 5809 5807 5806 5804 5802 5800 5798 5796 5794 5793 5790 5788
5804 5806 5808 5811 5813 5813 5814 5815 5817 5818 5818 5818 5819 5820 5820 5822 5822 5822 5823 5825 5826 5827 5828 5828 5829 5829 5830 5833 5834 5835 5835 5836 5836 5835 5835 5835 5836 5836 5837 5837 5837 5837 5836 5836 5836 5835 5835 5834 5834 5834 5834 5833 5832 5832 5832 5831 5830 5829 5828 5828 5827 5826 5826 5824 5824 5823 5822 5821 5819 5818 5817 5816 5815 5813 5812 5810 5808 5806 5804 5803 5801 5799 5797 5795 5793 5791 5789 5788
5800 5802 5804 5807 5809 5810 5811 5812 5814 5815 5815 5815 5816 5816 5817 5818 5818 5818 5819 5821 5822 5824 5824 5825 5826 5827 5827 5829 5831 5832 5833 5833 5833 5831 5831 5832 5833 5834 5834 5834 5835 5835 5834 5834 5834 5833 5833 5832 5832 5832 5831 5831 5831 5830 5830 5829 5828 5827 5827 5826 5826 5825 5824 5823 5822 5822 5821 5819 5818 5817 5816 5815 5814 5812 5811 5809 5807 5805 5804 5803 5801 5799 5797 5795 5793 5791 5790 5788